This is the latest recevied weather packets stored in our database for station/object KE8YTO. If no packets are shown the sender has not sent any weather packets the latest 10 day(s).
| Time | Temp. | Humidity | Pressure | Rain* | Wind** | Luminosity | Snow |
|---|---|---|---|---|---|---|---|
| 1777525226 | 5.56° C | 92% | 991.5 hPa | 0 mm | - | - | - |
| 1777524631 | 5.56° C | 93% | 991.4 hPa | 0 mm | - | - | - |
| 1777522827 | 5.56° C | 92% | 991.3 hPa | 0.25 mm | - | - | - |
| 1777521024 | 5.56° C | 91% | 991.3 hPa | 0.76 mm | - | - | - |
| 1777519815 | 5.56° C | 91% | 991.3 hPa | 0.51 mm | - | - | - |
| 1777516822 | 6.11° C | 87% | 991.2 hPa | 0.25 mm | - | - | - |
| 1777513822 | 6.11° C | 88% | 990.5 hPa | 0 mm | - | - | - |
| 1777509646 | 6.67° C | 84% | 989.7 hPa | 0 mm | - | - | - |
| 1777509031 | 7.22° C | 85% | 989.6 hPa | 0 mm | - | - | - |
| 1777507823 | 7.22° C | 85% | 989.4 hPa | 0 mm | - | - | - |
| 1777504829 | 7.78° C | 85% | 989.2 hPa | 0 mm | - | - | - |
| 1777500032 | 8.33° C | 88% | 988.7 hPa | 0 mm | - | - | - |
| 1777496426 | 8.33° C | 88% | 988.4 hPa | 0.76 mm | - | - | - |
| 1777495831 | 8.33° C | 89% | 988.4 hPa | 0.76 mm | - | - | - |
| 1777494027 | 8.33° C | 88% | 988.3 hPa | 0.51 mm | - | - | - |
| 1777489825 | 8.33° C | 88% | 988.2 hPa | 0.25 mm | - | - | - |
| 1777488022 | 9.44° C | 88% | 988 hPa | 0.76 mm | - | - | - |
| 1777485624 | 9.44° C | 89% | 988.1 hPa | 2.03 mm | - | - | - |
| 1777480821 | 10.56° C | 82% | 988.5 hPa | 0.76 mm | - | - | - |
| 1777478417 | 11.11° C | 76% | 988.4 hPa | 0 mm | - | - | - |
| 1777477816 | 11.67° C | 75% | 988.4 hPa | 0 mm | - | - | - |
| 1777477221 | 11.67° C | 74% | 988.4 hPa | 0 mm | - | - | - |
| 1777475417 | 11.67° C | 72% | 988.5 hPa | 0 mm | - | - | - |
| 1777470025 | 10.56° C | 75% | 988.6 hPa | 0 mm | - | - | - |
| 1777468817 | 10° C | 75% | 988.9 hPa | 0 mm | - | - | - |
* Rain latest hour (hover to see other rain measurements)
** Current wind speed in m/s (hover to see current wind gust speed)